[[{"header":{"parameterUnit":"m.s-1","parameterCategory":1,"la1":30.2991,"la2":30.254,"lo1":-89.0895,"lo2":-89.0444,"dy":0.0017,"dx":0.0017,"nx":28,"ny":28,"refTime":"2024-05-11T03:00:00:Z","depth":0,"parameterNumber":2,"parameterNumberName":"U-component_of_WINDS"},"data":[0,0,0,0,0,0,0,0,0,0,0,0,0,0,0,0,0,0,0,0,0,0,0,0,0,0,0,0,0,0,0,0,0,0,0,0,0,0,0,0,0,0,0,0,0,0,0,0,0,0,0,0,0,0,0,0,0,0,-1.292,-1.292,0,-1.2869,-1.2868,-1.2868,-1.2746,-1.2744,-1.2741,-1.2739,-1.2691,-1.2692,-1.2693,0,0,0,0,0,0,0,0,0,0,0,0,0,-1.2919,-1.2919,-1.292,-1.292,-1.2919,-1.2869,-1.2868,-1.2868,-1.2747,-1.2744,-1.2741,-1.2738,-1.269,-1.2692,-1.2693,0,0,0,0,0,0,0,0,0,0,0,0,0,-1.2899,-1.2919,-1.2921,-1.2853,-1.2846,-1.2869,-1.2868,-1.2868,-1.2748,-1.2744,-1.274,-1.2736,-1.269,-1.2692,-1.2693,-1.2779,0,0,-1.2698,-1.2699,0,0,0,0,0,0,0,0,-1.29,-1.2899,-1.2863,-1.2857,-1.285,-1.281,-1.285,-1.2838,-1.2749,-1.2785,-1.2739,-1.2735,-1.2734,-1.2732,-1.2731,-1.2777,-1.2775,-1.2698,-1.2699,-1.27,-1.27,0,0,0,0,0,0,0,-1.2902,-1.29,-1.29,-1.2863,-1.2855,-1.2826,-1.2819,-1.2847,-1.2782,-1.2782,-1.2773,-1.2768,-1.273,-1.2729,-1.2729,-1.2774,-1.2698,-1.27,-1.2701,-1.2701,-1.2892,-1.2896,0,0,0,0,0,0,-1.2912,-1.2902,-1.2902,-1.2899,-1.2866,-1.283,-1.2822,-1.2827,-1.2781,-1.277,-1.2771,-1.2763,-1.2728,-1.2727,-1.2726,-1.2826,-1.27,-1.2702,-1.2702,-1.2888,-1.2893,-1.2897,0,0,0,0,0,0,-1.2912,-1.2913,-1.2904,-1.2898,-1.2895,-1.2834,-1.2841,-1.2828,-1.2827,-1.2773,-1.2761,-1.2783,-1.2725,-1.2724,-1.2767,-1.2823,-1.2702,-1.2704,-1.2883,-1.2889,-1.2895,-1.3025,0,0,0,0,0,0,-1.2913,-1.2914,-1.2945,-1.29,-1.2895,-1.2945,-1.2844,-1.283,-1.283,-1.2818,-1.2781,-1.2771,-1.2722,-1.2766,-1.2769,-1.2823,-1.2705,-1.2878,-1.2886,-1.2893,-1.3016,-1.3035,-1.3051,0,0,0,0,0,-1.2913,-1.2984,-1.2947,-1.2948,-1.2933,-1.2948,-1.2946,-1.2887,-1.2835,-1.2866,-1.2832,-1.2772,-1.2816,-1.2771,-1.2774,-1.2829,-1.2874,-1.2883,-1.2892,-1.3008,-1.3031,-1.3051,0,0,0,0,0,0,-1.3039,-1.2977,-1.2935,-1.2993,-1.2977,-1.2927,-1.2965,-1.2913,-1.2912,-1.2901,-1.283,-1.2823,-1.2876,-1.2856,-1.2808,-1.2911,-1.2835,-1.2846,-1.2922,-1.2944,-1.2962,-1.2966,-1.2706,0,0,0,0,0,-1.3073,-1.3089,-1.3035,-1.3091,-1.3085,-1.3027,-1.3031,-1.2988,-1.2968,-1.2961,-1.2929,-1.2914,-1.2924,-1.2933,-1.2939,-1.3012,-1.3003,-1.3051,-1.3069,-1.3084,-1.3094,-1.3134,-1.3155,-1.2927,-1.2927,-1.2927,0,0,-1.3144,-1.3112,-1.3127,-1.3116,-1.3097,-1.3118,-1.3022,-1.3047,-1.3062,-1.2965,-1.3004,-1.2981,-1.2959,-1.3018,-1.3043,-1.3003,-1.3155,-1.3096,-1.3108,-1.311,-1.3145,-1.3167,-1.3186,-1.2933,-1.2932,-1.2931,0,0,-1.3284,-1.3261,-1.3306,-1.329,-1.3264,-1.3225,-1.3236,-1.3195,-1.3176,-1.3213,-1.3142,-1.3159,-1.3178,-1.3166,-1.3163,-1.33,-1.3247,-1.3305,-1.3399,-1.3438,-1.3456,-1.3472,-1.3523,-1.3542,-1.3315,-1.3315,-1.3315,0,-1.3377,-1.3402,-1.3337,-1.3366,-1.3365,-1.3277,-1.3324,-1.3312,-1.329,-1.3292,-1.3247,-1.327,-1.3249,-1.3305,-1.3339,-1.3338,-1.3351,-1.3309,-1.3458,-1.3473,-1.3487,-1.3535,-1.3554,-1.3322,-1.3321,-1.3321,-1.332,0,-1.3518,-1.3538,-1.3578,-1.3558,-1.356,-1.3599,-1.354,-1.3551,-1.3508,-1.3474,-1.3515,-1.3487,-1.3487,-1.3497,-1.3455,-1.3548,-1.3525,-1.3471,-1.3394,-1.3517,-1.3561,-1.3579,-1.3333,-1.333,-1.3328,-1.3326,0,0,-1.3736,-1.368,-1.3696,-1.3687,-1.3652,-1.3666,-1.3702,-1.3701,-1.3712,-1.37,-1.373,-1.3748,-1.3698,-1.3695,-1.365,-1.3685,-1.3799,-1.3626,-1.3625,-1.3661,-1.3902,-1.3945,-1.3967,-1.3762,-1.3765,-1.3768,-1.3905,0,-1.3869,-1.3925,-1.3868,-1.3936,-1.3954,-1.3872,-1.3903,-1.3887,-1.3857,-1.3869,-1.3836,-1.3851,-1.3783,-1.3781,-1.3811,-1.3778,-1.3846,-1.3767,-1.3791,-1.3793,-1.3801,-1.399,-1.4034,-1.4165,-1.3922,-1.3924,-1.3926,0,-1.4032,-1.4027,-1.4098,-1.406,-1.4065,-1.4094,-1.409,-1.4102,-1.4082,-1.4058,-1.4055,-1.4001,-1.4036,-1.396,-1.4007,-1.3955,-1.3961,-1.3947,-1.3951,-1.3952,-1.3868,-1.3998,-1.4205,-1.4226,-1.3953,-1.3951,-1.3949,0,-1.4187,-1.4198,-1.4241,-1.4236,-1.4192,-1.4215,-1.4198,-1.4174,-1.4178,-1.4175,-1.4177,-1.4178,-1.418,-1.4183,-1.4132,-1.4081,-1.4187,-1.4106,-1.417,-1.4172,-1.4198,-1.4197,-1.4411,-1.4199,-1.4199,-1.4198,-1.4198,0,-1.4343,-1.4389,-1.4311,-1.4338,-1.4389,-1.4323,-1.4375,-1.435,-1.433,-1.4353,-1.4281,-1.4305,-1.4235,-1.4252,-1.4212,-1.4259,-1.426,-1.4243,-1.4232,-1.425,-1.4253,-1.4255,-1.4245,-1.4204,-1.4202,-1.4201,-1.4201,0,-1.4524,-1.4473,-1.4516,-1.4471,-1.4461,-1.4501,-1.4463,-1.4488,-1.4453,-1.4483,-1.4486,-1.4433,-1.4449,-1.4398,-1.4406,-1.4379,-1.4449,-1.4422,-1.4456,-1.4448,-1.4516,-1.4512,-1.474,-1.4768,-1.4537,-1.4539,-1.4541,0,-1.4628,-1.4662,-1.4621,-1.463,-1.4617,-1.4633,-1.4637,-1.4574,-1.4581,-1.4562,-1.4589,-1.4599,-1.4603,-1.4633,-1.4596,-1.4603,-1.4577,-1.4656,-1.4577,-1.4595,-1.4581,-1.458,-1.4585,-1.4674,-1.4677,-1.4679,-1.4681,0,-1.4818,-1.4791,-1.4798,-1.4797,-1.4803,-1.4799,-1.4791,-1.4803,-1.4736,-1.4748,-1.4762,-1.4766,-1.4774,-1.4786,-1.4784,-1.4768,-1.4715,-1.4706,-1.4721,-1.4741,-1.476,-1.4753,-1.4502,-1.4701,-1.4699,-1.4697,-1.4696,-1.4696,-1.4965,-1.4992,-1.4968,-1.4979,-1.4966,-1.496,-1.4981,-1.495,-1.496,-1.4961,-1.4924,-1.4947,-1.4928,-1.492,-1.4911,-1.493,-1.4893,-1.4915,-1.4921,-1.4928,-1.4941,-1.4755,-1.4929,-1.4928,-1.4928,-1.4927,-1.4926,0,-1.5153,-1.5134,-1.5144,-1.5135,-1.5144,-1.509,-1.5079,-1.5091,-1.5112,-1.5098,-1.5104,-1.5122,-1.5134,-1.5098,-1.5105,-1.5127,-1.5103,-1.5131,-1.513,-1.5128,-1.4972,-1.4958,-1.515,-1.515,-1.515,-1.515,-1.515,-1.515,-1.5252,-1.5296,-1.5267,-1.5305,-1.5285,-1.5306,-1.5305,-1.53,-1.5289,-1.5312,-1.5321,-1.5297,-1.5275,-1.528,-1.5289,-1.5278,-1.5285,-1.5323,-1.5305,-1.516,-1.5138,-1.5117,-1.5105,-1.5324,-1.5325,-1.5459,-1.546,-1.5461]},{"header":{"parameterUnit":"m.s-1","parameterCategory":1,"la1":30.2991,"la2":30.254,"lo1":-89.0895,"lo2":-89.0444,"dy":0.0017,"dx":0.0017,"nx":28,"ny":28,"refTime":"2024-05-11T03:00:00:Z","depth":0,"parameterNumber":3,"parameterNumberName":"V-component_of_WINDS"},"data":[0,0,0,0,0,0,0,0,0,0,0,0,0,0,0,0,0,0,0,0,0,0,0,0,0,0,0,0,0,0,0,0,0,0,0,0,0,0,0,0,0,0,0,0,0,0,0,0,0,0,0,0,0,0,0,0,0,0,-1.0417,-1.0416,0,-1.038,-1.038,-1.0379,-1.0453,-1.0455,-1.0457,-1.046,-1.0419,-1.0416,-1.0412,0,0,0,0,0,0,0,0,0,0,0,0,0,-1.055,-1.0548,-1.0417,-1.0416,-1.0416,-1.038,-1.038,-1.0379,-1.0452,-1.0455,-1.0458,-1.0461,-1.042,-1.0416,-1.0412,0,0,0,0,0,0,0,0,0,0,0,0,0,-1.0501,-1.0547,-1.0417,-1.0448,-1.0451,-1.038,-1.038,-1.0379,-1.0452,-1.0455,-1.0459,-1.0462,-1.0421,-1.0417,-1.0412,-1.0308,0,0,-1.0396,-1.0394,0,0,0,0,0,0,0,0,-1.0504,-1.0496,-1.0444,-1.0446,-1.0448,-1.0425,-1.0412,-1.0355,-1.0451,-1.0451,-1.046,-1.0464,-1.0418,-1.0413,-1.0398,-1.0307,-1.0305,-1.0396,-1.0393,-1.0391,-1.0389,0,0,0,0,0,0,0,-1.0507,-1.0498,-1.0402,-1.0443,-1.0446,-1.0464,-1.0461,-1.0402,-1.0414,-1.0451,-1.0457,-1.0451,-1.042,-1.0403,-1.0398,-1.0304,-1.0396,-1.0392,-1.0389,-1.0387,-1.0134,-1.013,0,0,0,0,0,0,-1.0507,-1.05,-1.0403,-1.0401,-1.0486,-1.0459,-1.0455,-1.0429,-1.0415,-1.0417,-1.0448,-1.0455,-1.041,-1.0404,-1.0397,-1.0281,-1.0391,-1.0386,-1.0383,-1.0137,-1.0133,-1.0129,0,0,0,0,0,0,-1.0509,-1.0497,-1.0405,-1.0452,-1.0442,-1.0453,-1.0422,-1.0426,-1.041,-1.0413,-1.0416,-1.0429,-1.0412,-1.0404,-1.0332,-1.028,-1.0384,-1.0379,-1.0142,-1.0136,-1.0131,-1.0044,0,0,0,0,0,0,-1.0513,-1.0498,-1.0458,-1.0451,-1.0439,-1.034,-1.0419,-1.0423,-1.0401,-1.041,-1.0396,-1.0397,-1.0415,-1.0339,-1.0327,-1.0275,-1.0375,-1.0146,-1.0139,-1.0133,-1.0052,-1.0036,-1.0023,0,0,0,0,0,-1.0517,-1.0432,-1.0456,-1.0443,-1.039,-1.0337,-1.033,-1.0353,-1.0396,-1.0358,-1.0361,-1.0397,-1.0287,-1.0331,-1.0318,-1.0264,-1.015,-1.0141,-1.0133,-1.0058,-1.0039,-1.0023,0,0,0,0,0,0,-1.043,-1.0432,-1.0457,-1.0368,-1.0352,-1.0349,-1.03,-1.0331,-1.0301,-1.031,-1.0339,-1.0335,-1.0259,-1.0254,-1.0302,-1.0167,-1.0226,-1.0215,-1.0173,-1.0156,-1.0142,-1.0146,-1.0371,0,0,0,0,0,-1.0401,-1.0358,-1.0362,-1.0282,-1.0274,-1.0288,-1.0266,-1.0286,-1.027,-1.0263,-1.026,-1.0243,-1.0206,-1.018,-1.0145,-1.0051,-1.0052,-1.0008,-0.9993,-0.9982,-0.9972,-0.9929,-0.9911,-1.0101,-1.0101,-1.0102,0,0,-1.0339,-1.0335,-1.0306,-1.0265,-1.0255,-1.0212,-1.0282,-1.0231,-1.02,-1.0254,-1.0189,-1.0186,-1.0169,-1.0088,-1.0052,-1.0081,-0.992,-0.9971,-0.9962,-0.9959,-0.9918,-0.99,-0.9884,-1.0096,-1.0097,-1.0098,0,0,-1.0206,-1.0196,-1.0133,-1.0123,-1.0109,-1.012,-1.0105,-1.0098,-1.01,-1.0034,-1.0077,-1.004,-0.9972,-0.9961,-0.9946,-0.9815,-0.9849,-0.9802,-0.9728,-0.9685,-0.9671,-0.9658,-0.9616,-0.96,-0.9792,-0.9792,-0.9792,0,-1.0131,-1.0068,-1.0096,-1.0045,-1.0028,-1.0078,-1.0016,-1.0004,-0.9978,-0.9965,-0.9999,-0.9921,-0.9912,-0.9832,-0.9801,-0.9785,-0.9771,-0.9805,-0.967,-0.9658,-0.9646,-0.9607,-0.959,-0.9787,-0.9788,-0.9788,-0.9789,0,-0.9979,-0.9935,-0.9885,-0.9863,-0.984,-0.9782,-0.9804,-0.9777,-0.98,-0.9808,-0.9744,-0.9736,-0.9704,-0.9685,-0.9705,-0.9609,-0.9629,-0.9666,-0.9726,-0.9622,-0.9586,-0.9571,-0.978,-0.9781,-0.9783,-0.9784,0,0,-0.9788,-0.9787,-0.9768,-0.9762,-0.9752,-0.9718,-0.9665,-0.9636,-0.9615,-0.9596,-0.9555,-0.9499,-0.9536,-0.9519,-0.9538,-0.95,-0.9404,-0.9543,-0.9543,-0.9521,-0.9304,-0.928,-0.9261,-0.9426,-0.9423,-0.9421,-0.9308,0,-0.966,-0.9571,-0.9598,-0.9509,-0.9471,-0.9522,-0.9476,-0.9466,-0.9473,-0.9443,-0.945,-0.9413,-0.9461,-0.9452,-0.9416,-0.9423,-0.9362,-0.9431,-0.9391,-0.9389,-0.9397,-0.9241,-0.9214,-0.9107,-0.9293,-0.929,-0.9289,0,-0.9498,-0.9479,-0.9387,-0.939,-0.9375,-0.9333,-0.9313,-0.9281,-0.9273,-0.9281,-0.9265,-0.9294,-0.9245,-0.9304,-0.9239,-0.9286,-0.9271,-0.9272,-0.9268,-0.9268,-0.9334,-0.9241,-0.9072,-0.9058,-0.9265,-0.9267,-0.9269,0,-0.9375,-0.9324,-0.9265,-0.9257,-0.9257,-0.9228,-0.9227,-0.9221,-0.9204,-0.9185,-0.9175,-0.9149,-0.9136,-0.9116,-0.9138,-0.9179,-0.9071,-0.9131,-0.9079,-0.9079,-0.9056,-0.9058,-0.8887,-0.904,-0.904,-0.904,-0.904,0,-0.9232,-0.9175,-0.9211,-0.9174,-0.9113,-0.9145,-0.9084,-0.9088,-0.9084,-0.9051,-0.909,-0.9058,-0.9088,-0.9059,-0.9076,-0.9023,-0.9014,-0.9022,-0.9028,-0.9021,-0.902,-0.9013,-0.9023,-0.9036,-0.9037,-0.9038,-0.9038,0,-0.9084,-0.9105,-0.9045,-0.9052,-0.9053,-0.9008,-0.9015,-0.8982,-0.8994,-0.8952,-0.8943,-0.8962,-0.893,-0.8951,-0.8917,-0.8929,-0.8861,-0.8874,-0.8865,-0.887,-0.8819,-0.8825,-0.8641,-0.862,-0.8782,-0.878,-0.8779,0,-0.8993,-0.8952,-0.8956,-0.8939,-0.8936,-0.8904,-0.8889,-0.8919,-0.8901,-0.8892,-0.8861,-0.8834,-0.8814,-0.8762,-0.8773,-0.8749,-0.8765,-0.8703,-0.8762,-0.8758,-0.877,-0.8774,-0.8773,-0.8691,-0.8689,-0.8688,-0.8686,0,-0.8831,-0.8846,-0.8822,-0.8804,-0.8785,-0.8771,-0.8761,-0.8743,-0.8775,-0.8753,-0.8723,-0.8708,-0.8677,-0.8651,-0.8633,-0.8632,-0.8665,-0.8668,-0.8656,-0.8649,-0.8647,-0.8653,-0.8836,-0.8672,-0.8673,-0.8675,-0.8675,-0.8676,-0.8713,-0.8681,-0.8681,-0.8655,-0.8652,-0.8642,-0.8615,-0.8625,-0.8601,-0.8581,-0.86,-0.8565,-0.8562,-0.8542,-0.8537,-0.8512,-0.8537,-0.8518,-0.8514,-0.851,-0.8505,-0.8649,-0.8508,-0.8508,-0.8508,-0.8509,-0.8509,0,-0.8558,-0.8562,-0.8538,-0.8525,-0.8506,-0.854,-0.8532,-0.8514,-0.8484,-0.8478,-0.846,-0.8428,-0.8404,-0.8415,-0.8395,-0.8372,-0.8388,-0.8366,-0.837,-0.8371,-0.8481,-0.8496,-0.8355,-0.8355,-0.8355,-0.8355,-0.8355,-0.8355,-0.8475,-0.8425,-0.844,-0.839,-0.8394,-0.8362,-0.8356,-0.8348,-0.8346,-0.8309,-0.8291,-0.8299,-0.8301,-0.8282,-0.8263,-0.8267,-0.826,-0.8234,-0.8243,-0.8347,-0.8362,-0.8377,-0.8391,-0.8231,-0.8231,-0.8136,-0.8135,-0.8135]}]]